When you browse on this site, cookies collect data to enhance your experience and personalize the content and advertising you see.
Visit our Privacy Policy to learn more. By continuing to use the site, you agree to this use of cookies and data.
  • En España
  • Lista de países
  • Para 7 días
  • Temperatura del agua
  • Mapa Satelital
  • El tiempo en el mapa
  • Informadores
  • user-avatar
    Iniciar sesión

    Tiempo cada hora Biograd

    Hoy, 21 Abril, Domingo

    Tiempo Temperatura Precipitaciones Viento Presión Humedad
    00:00 +13°C° 0 mm 4 mps 766 mmHg 51%
    01:00 +13°C° 0 mm 5 mps 766 mmHg 48%
    02:00 +13°C° 0 mm 4 mps 766 mmHg 48%
    03:00 +12°C° 0 mm 4 mps 765 mmHg 48%
    04:00 +12°C° 0 mm 4 mps 765 mmHg 47%
    05:00 +13°C° 0 mm 4 mps 765 mmHg 47%
    06:00 +13°C° 0 mm 3 mps 765 mmHg 47%
    07:00 +14°C° 0 mm 4 mps 765 mmHg 45%
    08:00 +17°C° 0 mm 3 mps 765 mmHg 41%
    09:00 +18°C° 0 mm 3 mps 765 mmHg 38%
    10:00 +20°C° 0 mm 3 mps 764 mmHg 34%
    11:00 +21°C° 0 mm 3 mps 764 mmHg 37%
    12:00 +21°C° 0 mm 4 mps 764 mmHg 40%
    13:00 +21°C° 0 mm 3 mps 764 mmHg 42%
    14:00 +21°C° 0 mm 4 mps 763 mmHg 48%
    15:00 +20°C° 0 mm 4 mps 763 mmHg 53%
    16:00 +20°C° 0 mm 5 mps 763 mmHg 58%
    17:00 +18°C° 0 mm 4 mps 762 mmHg 65%
    18:00 +17°C° 0 mm 4 mps 762 mmHg 71%
    19:00 +16°C° 0 mm 3 mps 762 mmHg 78%
    20:00 +14°C° 0 mm 3 mps 762 mmHg 78%
    21:00 +14°C° 0 mm 4 mps 762 mmHg 78%
    22:00 +14°C° 0 mm 4 mps 763 mmHg 79%
    23:00 +13°C° 0 mm 4 mps 762 mmHg 78%

    Mañana, 22 Abril, Lunes

    Tiempo Temperatura Precipitaciones Viento Presión Humedad
    00:00 +13°C° 0 mm 5 mps 762 mmHg 78%
    01:00 +13°C° 0 mm 6 mps 762 mmHg 78%
    02:00 +13°C° 0 mm 6 mps 762 mmHg 79%
    03:00 +13°C° 0 mm 6 mps 762 mmHg 80%
    04:00 +11°C° 0 mm 6 mps 761 mmHg 81%
    05:00 +12°C° 0 mm 7 mps 761 mmHg 78%
    06:00 +14°C° 0 mm 7 mps 760 mmHg 75%
    07:00 +14°C° 0 mm 7 mps 760 mmHg 72%
    08:00 +15°C° 0 mm 7 mps 760 mmHg 68%
    09:00 +16°C° 0 mm 8 mps 759 mmHg 64%
    10:00 +17°C° 0 mm 8 mps 759 mmHg 60%
    11:00 +18°C° 0 mm 9 mps 758 mmHg 59%
    12:00 +18°C° 0 mm 9 mps 758 mmHg 58%
    13:00 +19°C° 0 mm 9 mps 757 mmHg 57%
    14:00 +19°C° 0 mm 10 mps 757 mmHg 58%
    15:00 +18°C° 0 mm 10 mps 756 mmHg 58%
    16:00 +18°C° 0 mm 10 mps 755 mmHg 59%
    17:00 +17°C° 0 mm 10 mps 755 mmHg 61%
    18:00 +16°C° 0 mm 11 mps 755 mmHg 64%
    19:00 +16°C° 0 mm 11 mps 755 mmHg 67%
    20:00 +14°C° 0.3 mm 11 mps 754 mmHg 71%
    21:00 +14°C° 0.3 mm 12 mps 754 mmHg 74%
    22:00 +14°C° 0.3 mm 12 mps 754 mmHg 78%
    23:00 +14°C° 1.6 mm 12 mps 754 mmHg 78%

    Pasado mañana, 23 Abril, Martes

    Tiempo Temperatura Precipitaciones Viento Presión Humedad
    00:00 +13°C° 1.6 mm 13 mps 753 mmHg 78%
    01:00 +13°C° 1.6 mm 13 mps 753 mmHg 79%
    02:00 +13°C° 0.2 mm 13 mps 753 mmHg 79%
    03:00 +14°C° 0.2 mm 14 mps 752 mmHg 80%
    04:00 +14°C° 0.2 mm 14 mps 752 mmHg 80%
    05:00 +14°C° 0.1 mm 14 mps 752 mmHg 80%
    06:00 +14°C° 0.1 mm 13 mps 752 mmHg 79%
    07:00 +15°C° 0.1 mm 13 mps 752 mmHg 78%
    08:00 +15°C° 0 mm 13 mps 752 mmHg 77%
    09:00 +17°C° 0 mm 13 mps 752 mmHg 75%
    10:00 +17°C° 0 mm 13 mps 752 mmHg 73%
    11:00 +18°C° 0.1 mm 13 mps 752 mmHg 73%
    12:00 +18°C° 0.1 mm 13 mps 752 mmHg 72%
    13:00 +19°C° 0.1 mm 13 mps 752 mmHg 71%
    14:00 +19°C° 0.5 mm 12 mps 752 mmHg 73%
    15:00 +19°C° 0.5 mm 11 mps 752 mmHg 74%
    16:00 +19°C° 0.5 mm 11 mps 752 mmHg 75%
    17:00 +18°C° 2.5 mm 10 mps 753 mmHg 78%
    18:00 +17°C° 2.5 mm 9 mps 753 mmHg 81%
    19:00 +16°C° 2.5 mm 9 mps 753 mmHg 84%
    20:00 +16°C° 1.6 mm 8 mps 754 mmHg 85%
    21:00 +16°C° 1.6 mm 7 mps 755 mmHg 87%
    22:00 +15°C° 1.6 mm 6 mps 755 mmHg 88%
    23:00 +15°C° 1.2 mm 6 mps 756 mmHg 88%

    24 Abril, Miércoles

    Tiempo Temperatura Precipitaciones Viento Presión Humedad
    00:00 +15°C° 1.2 mm 6 mps 756 mmHg 89%
    01:00 +15°C° 1.2 mm 6 mps 757 mmHg 90%
    02:00 +15°C° 0 mm 6 mps 757 mmHg 90%
    03:00 +15°C° 0 mm 6 mps 758 mmHg 89%
    04:00 +15°C° 0 mm 6 mps 758 mmHg 89%
    05:00 +15°C° 0 mm 7 mps 758 mmHg 89%
    06:00 +16°C° 0 mm 7 mps 759 mmHg 88%
    07:00 +16°C° 0 mm 8 mps 759 mmHg 87%
    08:00 +17°C° 0.1 mm 8 mps 760 mmHg 85%
    09:00 +17°C° 0.1 mm 8 mps 760 mmHg 83%
    10:00 +18°C° 0.1 mm 8 mps 761 mmHg 81%
    11:00 +18°C° 0.1 mm 8 mps 761 mmHg 80%
    12:00 +20°C° 0.1 mm 8 mps 761 mmHg 78%
    13:00 +20°C° 0.1 mm 8 mps 761 mmHg 77%
    14:00 +20°C° 0 mm 7 mps 761 mmHg 76%
    15:00 +20°C° 0 mm 7 mps 761 mmHg 74%
    16:00 +21°C° 0 mm 7 mps 761 mmHg 72%
    17:00 +20°C° 0 mm 6 mps 761 mmHg 74%
    18:00 +19°C° 0 mm 6 mps 761 mmHg 76%
    19:00 +17°C° 0 mm 6 mps 761 mmHg 78%
    20:00 +17°C° 0 mm 6 mps 761 mmHg 76%
    21:00 +16°C° 0 mm 6 mps 761 mmHg 74%
    22:00 +16°C° 0 mm 6 mps 762 mmHg 72%
    23:00 +16°C° 0 mm 6 mps 761 mmHg 72%

    25 Abril, Jueves

    Tiempo Temperatura Precipitaciones Viento Presión Humedad
    00:00 +16°C° 0 mm 7 mps 761 mmHg 71%
    01:00 +16°C° 0 mm 7 mps 761 mmHg 71%
    02:00 +16°C° 0 mm 7 mps 761 mmHg 72%
    03:00 +15°C° 0 mm 7 mps 761 mmHg 74%
    04:00 +15°C° 0 mm 7 mps 761 mmHg 75%
    05:00 +16°C° 0 mm 7 mps 761 mmHg 74%
    06:00 +17°C° 0 mm 7 mps 761 mmHg 72%
    07:00 +17°C° 0 mm 8 mps 761 mmHg 71%
    08:00 +18°C° 0 mm 8 mps 761 mmHg 67%
    09:00 +21°C° 0 mm 7 mps 761 mmHg 64%
    10:00 +22°C° 0 mm 7 mps 762 mmHg 61%
    11:00 +22°C° 0 mm 7 mps 761 mmHg 60%
    12:00 +22°C° 0 mm 7 mps 761 mmHg 59%
    13:00 +23°C° 0 mm 7 mps 761 mmHg 58%
    14:00 +23°C° 0 mm 7 mps 761 mmHg 59%
    15:00 +22°C° 0 mm 7 mps 760 mmHg 60%
    16:00 +22°C° 0 mm 7 mps 760 mmHg 61%
    17:00 +21°C° 0 mm 7 mps 760 mmHg 66%
    18:00 +20°C° 0 mm 6 mps 760 mmHg 71%
    19:00 +19°C° 0 mm 5 mps 760 mmHg 76%
    20:00 +17°C° 0 mm 5 mps 760 mmHg 75%
    21:00 +17°C° 0 mm 5 mps 760 mmHg 75%
    22:00 +16°C° 0 mm 5 mps 761 mmHg 74%
    23:00 +16°C° 0 mm 5 mps 761 mmHg 73%

    26 Abril, Viernes

    Tiempo Temperatura Precipitaciones Viento Presión Humedad
    00:00 +16°C° 0 mm 5 mps 760 mmHg 72%
    01:00 +17°C° 0 mm 4 mps 760 mmHg 71%
    02:00 +17°C° 0 mm 4 mps 760 mmHg 73%
    03:00 +15°C° 0 mm 4 mps 760 mmHg 74%
    04:00 +15°C° 0 mm 4 mps 760 mmHg 76%
    05:00 +16°C° 0 mm 5 mps 760 mmHg 77%
    06:00 +16°C° 0 mm 5 mps 760 mmHg 77%
    07:00 +17°C° 0 mm 5 mps 760 mmHg 78%
    08:00 +17°C° 0 mm 5 mps 760 mmHg 80%
    09:00 +17°C° 0 mm 5 mps 760 mmHg 82%
    10:00 +17°C° 0 mm 5 mps 760 mmHg 85%
    11:00 +19°C° 0.1 mm 4 mps 760 mmHg 83%
    12:00 +19°C° 0.1 mm 4 mps 760 mmHg 82%
    13:00 +20°C° 0.1 mm 4 mps 760 mmHg 80%
    14:00 +20°C° 0 mm 3 mps 759 mmHg 80%
    15:00 +20°C° 0 mm 2 mps 759 mmHg 79%
    16:00 +21°C° 0 mm 1 mps 759 mmHg 78%
    17:00 +20°C° 0 mm 1 mps 759 mmHg 80%
    18:00 +18°C° 0 mm 2 mps 758 mmHg 83%
    19:00 +17°C° 0 mm 2 mps 758 mmHg 85%
    20:00 +17°C° 0.7 mm 4 mps 759 mmHg 84%
    21:00 +15°C° 0.7 mm 5 mps 759 mmHg 83%
    22:00 +15°C° 0.7 mm 7 mps 759 mmHg 82%
    23:00 +14°C° 1 mm 6 mps 759 mmHg 79%
    Mostrar más